Find Starlink 32150

NORAD ID: 60294 Int'l Des: 2024-132 Owner: SPXS Country: US Constellation: starlink operational
LEOCIRCULAR

当前视图

正在加载3D地球...

About Starlink 32150

Starlink 32150 (NORAD 60294) is a starlink constellation satellite (v2 mini) launched Jul 28, 2024 by SPXS of US. It operates in LEO, CIRCULAR orbit with a mass of 730.00 kg.

即将过境

Passes for default location (London). Set your location on the main map for personalized predictions.

高度历史

Loading altitude history...

两行轨道根数

1 60294U 24132S 26263.18564823 .00002082 00000-0 78776-4 0 9990
2 60294 53.1602 227.9560 0001758 119.5138 240.6039 15.31729115121351
Epoch: Sep 20, 2026 • Age: 22 hours

当前状态

高度 473.7 km
远地点 / 近地点 N/A
速度 7.63 km/s
星下点 39.64°N, 137.35°W
发射日期 Jul 28, 2024
运行时间 2.1 years
类型 internet

技术详情

分类 Payload
质量 730.00 kg
干质量 700.00 kg
长度 0.30 m
跨度 29.00 m
形状 ? Box + pan
制造商 SPXS
平台类型 Starlink V2M
阶段状态 In Orbit
所有者/国家 SPXS/US

Most Searched